Hourly Data Report for September 25, 2017

All times are specified in Local Standard Time (LST). Add 1 hour to adjust for Daylight Saving Time where and when it is observed.

SAINT JOHN A
NEW BRUNSWICK

45°18'58.000" N
65°53'24.000" W
108.80 m
8104901
71609
YSJ

Download Data

Hourly Data (September 2017)
Hourly Data Report for September 25, 2017
Temp Definition
°C
Dew Point Temp Definition
°C
Rel Hum Definition
%
Wind Dir Definition
10's deg

Wind Spd Definition
km/h
Visibility Definition
km
Stn Press Definition
kPa
Hmdx Definition


Wind Chill Definition


Weather Definition


TIME
00:00 Legend Double Dagger 16.0 15.0 94 36 1 24.1 100.38     Rain
01:00 Legend Double Dagger 17.0 15.7 92 36 10 24.1 100.42     LegendNANA
02:00 Legend Double Dagger 15.6 15.3 98 36 2 24.1 100.44     Mostly Cloudy
03:00 Legend Double Dagger 16.2 15.2 93 7 10 24.1 100.42     LegendNANA
04:00 Legend Double Dagger 15.5 14.5 94 6 9 24.1 100.46     LegendNANA
05:00 Legend Double Dagger 15.5 14.4 93 5 14 24.1 100.51     Clear
06:00 Legend Double Dagger 14.0 13.4 96 12 6 24.1 100.58     LegendNANA
07:00 Legend Double Dagger 14.9 13.8 93 6 8 24.1 100.65     LegendNANA
08:00 Legend Double Dagger 16.9 14.3 84 8 12 24.1 100.67     Mostly Cloudy
09:00 Legend Double Dagger 19.3 14.7 75 13 8 24.1 100.68     LegendNANA
10:00 Legend Double Dagger 21.1 15.8 71 10 4 24.1 100.68 26   LegendNANA
11:00 Legend Double Dagger 22.5 14.9 62 16 11 24.1 100.65 26   Mainly Clear
12:00 Legend Double Dagger 24.0 14.8 56 11 9 24.1 100.63 28   LegendNANA
13:00 Legend Double Dagger 25.1 15.2 53 15 5 24.1 100.56 29   LegendNANA
14:00 Legend Double Dagger 25.2 16.1 57 13 10 24.1 100.53 30   Clear
15:00 Legend Double Dagger 25.4 16.8 59 19 16 24.1 100.51 31   LegendNANA
16:00 Legend Double Dagger 24.1 17.2 65 22 16 24.1 100.47 30   LegendNANA
17:00 Legend Double Dagger 20.4 15.3 72 22 15 24.1 100.49 25   Clear
18:00 Legend Double Dagger 17.1 14.4 84 21 17 24.1 100.49     LegendNANA
19:00 Legend Double Dagger 15.4 14.0 91 21 4 24.1 100.46     LegendNANA
20:00 Legend Double Dagger 14.7 13.9 95 21 9 24.1 100.48     Clear
21:00 Legend Double Dagger 14.1 13.5 96 20 9 24.1 100.47     LegendNANA
22:00 Legend Double Dagger 14.0 13.7 98 19 10 4.8 100.45     Fog
23:00 Legend Double Dagger 14.1 13.8 98 21 7 4.8 100.39     Fog

Notes on Data Quality.

Legend

  • E = Estimated
  • M = Missing
  • NA = Not Available
  • ‡ = Partner data that is not subject to review by the National Climate Archives
Date modified: